Date,TemperatureHighF,TemperatureAvgF,TemperatureLowF,DewpointHighF,DewpointAvgF,DewpointLowF,HumidityHigh,HumidityAvg,HumidityLow,PressureMaxIn,PressureMinIn,WindSpeedMaxMPH,WindSpeedAvgMPH,GustSpeedMaxMPH,PrecipitationSumIn
2013-1-1,40.9,37.8,33.7,40.0,36.1,28.7,98,93,79,30.21,29.98,14,2,14,0.32
2013-1-2,39.9,34.5,32.2,39.4,31.4,28.8,98,88,78,30.20,30.00,9,2,9,0.03
2013-1-3,40.7,31.3,19.6,30.3,25.3,17.9,96,80,41,30.36,30.18,10,2,10,0.00
2013-1-4,36.4,25.5,14.6,25.5,20.1,12.7,95,81,61,30.47,30.36,15,3,15,0.00
2013-1-5,46.7,30.1,15.3,31.2,22.6,13.4,94,76,41,30.51,30.30,7,1,7,0.02
2013-1-6,38.0,35.3,33.0,34.7,32.6,29.3,97,90,77,30.33,30.14,12,4,12,0.02
2013-1-7,47.6,33.6,24.6,31.9,26.1,22.0,91,75,49,30.48,30.30,14,2,14,0.00
2013-1-8,57.6,33.0,19.0,31.1,23.9,16.8,93,74,29,30.49,30.36,12,1,12,0.00
2013-1-9,50.2,40.6,27.7,46.4,37.5,24.3,98,89,68,30.54,30.40,10,1,10,0.14
2013-1-10,61.0,48.9,38.1,50.5,44.3,37.6,98,85,61,30.53,30.30,8,2,8,0.00
2013-1-11,60.5,53.4,46.0,58.2,49.9,43.8,98,88,69,30.30,30.06,14,2,14,0.13
2013-1-12,70.1,56.0,45.3,62.2,54.0,44.5,99,93,74,30.17,30.02,12,1,13,0.07
2013-1-13,70.3,53.2,38.3,58.3,48.9,37.8,99,87,55,30.10,29.97,7,1,7,0.12
2013-1-14,57.5,48.3,38.5,56.7,47.0,37.2,98,95,92,30.28,30.03,9,2,9,1.34
2013-1-15,46.6,43.5,38.5,45.6,42.6,37.2,98,96,95,30.20,29.98,14,3,14,2.03
2013-1-16,54.3,47.5,42.9,52.9,46.5,41.6,99,96,92,30.06,29.92,9,2,9,0.69
2013-1-17,43.2,35.8,27.9,42.3,34.2,25.8,98,94,84,30.32,29.97,12,2,12,0.55
2013-1-18,38.4,25.0,14.4,30.6,22.1,12.7,98,89,69,30.59,30.32,2,0,2,0.01
2013-1-19,45.4,26.4,13.7,33.5,22.7,11.9,97,87,55,30.52,30.24,8,1,8,0.22
2013-1-20,48.4,30.9,20.6,34.2,26.4,19.4,96,85,56,30.25,30.15,18,3,18,0.01
2013-1-21,42.1,29.9,18.6,30.4,19.3,8.6,96,68,37,30.17,30.05,29,7,29,0.00
2013-1-22,26.9,21.4,15.6,9.5,2.4,-3.4,57,44,28,30.38,30.15,24,9,24,0.00
2013-1-23,35.7,27.8,12.8,23.2,15.0,4.4,79,59,46,30.42,30.14,18,6,18,0.00
2013-1-24,35.7,25.7,15.7,27.8,12.2,0.9,75,57,33,30.52,30.11,18,7,18,0.00
2013-1-25,31.2,24.8,17.8,30.4,19.5,6.8,97,81,56,30.46,30.15,12,4,12,0.00
2013-1-26,33.2,30.4,24.1,30.8,28.0,22.1,97,91,84,30.43,30.20,12,3,12,0.00
2013-1-27,42.7,31.1,19.1,32.1,25.5,17.5,95,81,62,30.52,30.41,12,3,12,0.07
2013-1-28,61.3,45.9,34.3,46.7,38.9,29.4,95,77,54,30.43,30.23,17,3,17,0.00
2013-1-29,69.2,52.0,40.3,52.6,46.4,39.4,99,83,48,30.25,29.94,13,2,13,0.02
2013-1-30,65.9,56.2,43.7,58.9,52.1,40.1,96,87,69,29.95,29.43,26,5,30,1.86
2013-1-31,43.6,32.4,28.0,40.7,24.8,18.9,93,74,55,30.01,29.45,26,13,26,0.02